DECAYED

ELECTRON KICK STAGE R/B, 61792 (Decayed)

Orbit data source: Space-Track

ELECTRON KICK STAGE R/B, 61792 was space debris in LEO originally from a launch on Tue, 05 Nov 2024 UTC launched from the Rocket Lab Launch Complex (RLLC). Debris objects in space refer to the collection of defunct objects orbiting the Earth. Examples of debris include non-operational satellites, rocket bodies, and fragments generated from explosions, collisions, or faulty payload assembly.

Not visible in the next 10 days
Identifier
61792, 2024-201A
Orbit
Decayed
Last TLE update
8 months ago
Origin
Manufacturer
Rocket Lab
Mission
Decayed spacecraft
Bus & Motor
KICK STAGE, CURIE
Mass
~50 kg wet, ~50 kg dry
Launch date (UTC)
2024-11-05 (8 months ago)
Launch vehicle
Unknown
Launch site
Rocket Lab Launch Complex (RLLC)
Object type
Payload
Rocket body
Debris
Shape & HBR
Trunc Cone, 0.7 m
Radar Cross Section
0.760 m², Medium (>0.1 m² and < 1m²)

Expand to show TLE details & history

TLE from 8 months ago
0 ELECTRON KICK STAGE R/B
1 61792U 24201A   24334.49196430  .11752310  21736-5  78759-3 0  9999
2 61792  97.8944 241.8772 0055062 188.7122 171.3222 16.32746336  3772
Epoch: 2024-11-29T11:48Z
TLE epoch observation values (Epoch: 2024-11-29T11:48:25.715Z)
Latitude
-0.00007°
Longitude
-4.08804°
Altitude
224.134 km
Speed
7.751 km/s
True Right ascension
16h 07m 30s
True Declination
0° 00' 00"
Sunlit
Object was in daylight at epoch
Visualization orbit readout
Visualization observer readout
Orbital elements
Apogee altitude
218.131 km
Perigee altitude
145.888 km
Semi-major axis
6,560.146 km
Eccentricity
0.00551
Inclination
97.8944°
RAAN
241.8772°
Arg. of periapsis
188.7122°
True anomaly
171.41675°
Mean anomaly
171.3222°
Eccentric anomaly
171.36954°
Mean motion
4.08482 °/min
Orbital period
88.13 mins
BSTAR
0.00078759
Loading maneuver chart data...
Loading SW <> Apogee altitude chart data...
Loading historical data...
Loading historical data...
Loading historical data...
Loading historical data...
Loading historical data...
Loading historical data...
Loading historical data...
Other satellites on launch #201 in the year 2024 (2024-11-05 UTC)
|